Location: Bazugues
(43.4465°N, 0.3432°E)
Time: 08:58:08
(UTC+00:00)

Cosmos 1656 - Pass Details

Date: 12 January 2026
Orbit: 797 x 847 km, 71.1° (Epoch: 17 February)

Event Time Altitude Azimuth Distance (km) Brightness Sun altitude
Rises 18:28:53 0° 341° (NNW) 3,398 6.9 -18.5°
Reaches altitude 10° 18:31:33 10° 350° (N) 2,453 6.1 -18.9°
Maximum altitude 18:36:42 36° 56° (NE) 1,283 4.2 -19.9°
Enters shadow 18:36:51 36° 60° (ENE) 1,283 4.1 -19.9°
